Year,Month,Day,Hour,Minute,Value (Times are PST for temperature in C)
2015,10,16,00,00,10.80
2015,10,16,00,01,10.80
2015,10,16,00,02,10.80
2015,10,16,00,03,10.80
2015,10,16,00,04,10.80
2015,10,16,00,05,10.80
2015,10,16,00,06,10.80
2015,10,16,00,07,10.80
2015,10,16,00,08,10.80
2015,10,16,00,09,10.80
2015,10,16,00,10,10.80
2015,10,16,00,11,10.80
2015,10,16,00,12,10.90
2015,10,16,00,13,10.90
2015,10,16,00,14,10.90
2015,10,16,00,15,10.90
2015,10,16,00,16,10.90
2015,10,16,00,17,10.90
2015,10,16,00,18,10.90
2015,10,16,00,19,10.90
2015,10,16,00,20,10.90
2015,10,16,00,21,11.00
2015,10,16,00,22,11.10
2015,10,16,00,23,11.10
2015,10,16,00,24,11.10
2015,10,16,00,25,11.10
2015,10,16,00,26,11.10
2015,10,16,00,27,11.10
2015,10,16,00,28,11.10
2015,10,16,00,29,11.20
2015,10,16,00,30,11.20
2015,10,16,00,31,11.20
2015,10,16,00,32,11.20
2015,10,16,00,33,11.30
2015,10,16,00,34,11.30
2015,10,16,00,35,11.30
2015,10,16,00,36,11.30
2015,10,16,00,37,11.30
2015,10,16,00,38,11.30
2015,10,16,00,39,11.40
2015,10,16,00,40,11.40
2015,10,16,00,41,11.40
2015,10,16,00,42,11.40
2015,10,16,00,43,11.30
2015,10,16,00,44,11.30
2015,10,16,00,45,11.30
2015,10,16,00,46,11.20
2015,10,16,00,47,11.20
2015,10,16,00,48,11.20
2015,10,16,00,49,11.10
2015,10,16,00,50,11.10
2015,10,16,00,51,11.10
2015,10,16,00,52,11.10
2015,10,16,00,53,11.10
2015,10,16,00,54,11.10
2015,10,16,00,55,11.10
2015,10,16,00,56,11.10
2015,10,16,00,57,11.00
2015,10,16,00,58,10.90
2015,10,16,00,59,10.90
2015,10,16,01,00,10.90
2015,10,16,01,01,10.90
2015,10,16,01,02,10.90
2015,10,16,01,03,10.90
2015,10,16,01,04,10.90
2015,10,16,01,05,10.90
2015,10,16,01,06,10.80
2015,10,16,01,07,10.80
2015,10,16,01,08,10.80
2015,10,16,01,09,10.80
2015,10,16,01,10,10.80
2015,10,16,01,11,10.80
2015,10,16,01,12,10.80
2015,10,16,01,13,10.80
2015,10,16,01,14,10.80
2015,10,16,01,15,10.70
2015,10,16,01,16,10.70
2015,10,16,01,17,10.70
2015,10,16,01,18,10.70
2015,10,16,01,19,10.80
2015,10,16,01,20,10.80
2015,10,16,01,21,10.80
2015,10,16,01,22,10.80
2015,10,16,01,23,10.70
2015,10,16,01,24,10.70
2015,10,16,01,25,10.70
2015,10,16,01,26,10.60
2015,10,16,01,27,10.60
2015,10,16,01,28,10.60
2015,10,16,01,29,10.60
2015,10,16,01,30,10.50
2015,10,16,01,31,10.40
2015,10,16,01,32,10.40
2015,10,16,01,33,10.40
2015,10,16,01,34,10.30
2015,10,16,01,35,10.30
2015,10,16,01,36,10.30
2015,10,16,01,37,10.30
2015,10,16,01,38,10.30
2015,10,16,01,39,10.30
2015,10,16,01,40,10.30
2015,10,16,01,41,10.30
2015,10,16,01,42,10.30
2015,10,16,01,43,10.30
2015,10,16,01,44,10.30
2015,10,16,01,45,10.30
2015,10,16,01,46,10.30
2015,10,16,01,47,10.30
2015,10,16,01,48,10.30
2015,10,16,01,49,10.30
2015,10,16,01,50,10.20
2015,10,16,01,51,10.20
2015,10,16,01,52,10.20
2015,10,16,01,53,10.20
2015,10,16,01,54,10.20
2015,10,16,01,55,10.20
2015,10,16,01,56,10.10
2015,10,16,01,57,10.10
2015,10,16,01,58,10.10
2015,10,16,01,59,10.10
2015,10,16,02,00,10.10
2015,10,16,02,01,10.10
2015,10,16,02,02,10.10
2015,10,16,02,03,10.10
2015,10,16,02,04,10.10
2015,10,16,02,05,10.10
2015,10,16,02,06,10.10
2015,10,16,02,07,10.10
2015,10,16,02,08,10.10
2015,10,16,02,09,10.10
2015,10,16,02,10,10.10
2015,10,16,02,11,10.10
2015,10,16,02,12,10.10
2015,10,16,02,13,10.10
2015,10,16,02,14,10.10
2015,10,16,02,15,10.10
2015,10,16,02,16,10.10
2015,10,16,02,17,10.10
2015,10,16,02,18,10.20
2015,10,16,02,19,10.20
2015,10,16,02,20,10.20
2015,10,16,02,21,10.20
2015,10,16,02,22,10.20
2015,10,16,02,23,10.20
2015,10,16,02,24,10.20
2015,10,16,02,25,10.20
2015,10,16,02,26,10.20
2015,10,16,02,27,10.20
2015,10,16,02,28,10.20
2015,10,16,02,29,10.10
2015,10,16,02,30,10.10
2015,10,16,02,31,10.10
2015,10,16,02,32,10.10
2015,10,16,02,33,10.10
2015,10,16,02,34,10.10
2015,10,16,02,35,10.10
2015,10,16,02,36,10.10
2015,10,16,02,37,10.10
2015,10,16,02,38,10.10
2015,10,16,02,39,10.10
2015,10,16,02,40,10.10
2015,10,16,02,41,10.10
2015,10,16,02,42,10.10
2015,10,16,02,43,10.10
2015,10,16,02,44,10.10
2015,10,16,02,45,10.20
2015,10,16,02,46,10.20
2015,10,16,02,47,10.30
2015,10,16,02,48,10.40
2015,10,16,02,49,10.40
2015,10,16,02,50,10.60
2015,10,16,02,51,10.70
2015,10,16,02,52,10.80
2015,10,16,02,53,10.90
2015,10,16,02,54,10.90
2015,10,16,02,55,11.00
2015,10,16,02,56,11.10
2015,10,16,02,57,11.10
2015,10,16,02,58,11.20
2015,10,16,02,59,11.30
2015,10,16,03,00,11.30
2015,10,16,03,01,11.40
2015,10,16,03,02,11.40
2015,10,16,03,03,11.40
2015,10,16,03,04,11.40
2015,10,16,03,05,11.40
2015,10,16,03,06,11.50
2015,10,16,03,07,11.60
2015,10,16,03,08,11.60
2015,10,16,03,09,11.70
2015,10,16,03,10,11.70
2015,10,16,03,11,11.80
2015,10,16,03,12,11.80
2015,10,16,03,13,11.80
2015,10,16,03,14,11.80
2015,10,16,03,15,11.90
2015,10,16,03,16,11.90
2015,10,16,03,17,11.90
2015,10,16,03,18,12.00
2015,10,16,03,19,12.00
2015,10,16,03,20,12.10
2015,10,16,03,21,12.10
2015,10,16,03,22,12.20
2015,10,16,03,23,12.20
2015,10,16,03,24,12.30
2015,10,16,03,25,12.30
2015,10,16,03,26,12.30
2015,10,16,03,27,12.30
2015,10,16,03,28,12.30
2015,10,16,03,29,12.30
2015,10,16,03,30,12.30
2015,10,16,03,31,12.30
2015,10,16,03,32,12.30
2015,10,16,03,33,12.30
2015,10,16,03,34,12.30
2015,10,16,03,35,12.40
2015,10,16,03,36,12.40
2015,10,16,03,37,12.50
2015,10,16,03,38,12.50
2015,10,16,03,39,12.60
2015,10,16,03,40,12.60
2015,10,16,03,41,12.60
2015,10,16,03,42,12.60
2015,10,16,03,43,12.60
2015,10,16,03,44,12.60
2015,10,16,03,45,12.50
2015,10,16,03,46,12.50
2015,10,16,03,47,12.50
2015,10,16,03,48,12.40
2015,10,16,03,49,12.40
2015,10,16,03,50,12.40
2015,10,16,03,51,12.40
2015,10,16,03,52,12.40
2015,10,16,03,53,12.40
2015,10,16,03,54,12.30
2015,10,16,03,55,12.30
2015,10,16,03,56,12.30
2015,10,16,03,57,12.40
2015,10,16,03,58,12.40
2015,10,16,03,59,12.40
2015,10,16,04,00,12.40
2015,10,16,04,01,12.40
2015,10,16,04,02,12.40
2015,10,16,04,03,12.40
2015,10,16,04,04,12.40
2015,10,16,04,05,12.40
2015,10,16,04,06,12.50
2015,10,16,04,07,12.50
2015,10,16,04,08,12.50
2015,10,16,04,09,12.50
2015,10,16,04,10,12.50
2015,10,16,04,11,12.60
2015,10,16,04,12,12.60
2015,10,16,04,13,12.50
2015,10,16,04,14,12.50
2015,10,16,04,15,12.50
2015,10,16,04,16,12.50
2015,10,16,04,17,12.50
2015,10,16,04,18,12.50
2015,10,16,04,19,12.50
2015,10,16,04,20,12.50
2015,10,16,04,21,12.50
2015,10,16,04,22,12.40
2015,10,16,04,23,12.40
2015,10,16,04,24,12.40
2015,10,16,04,25,12.40
2015,10,16,04,26,12.40
2015,10,16,04,27,12.40
2015,10,16,04,28,12.30
2015,10,16,04,29,12.30
2015,10,16,04,30,12.30
2015,10,16,04,31,12.30
2015,10,16,04,32,12.30
2015,10,16,04,33,12.30
2015,10,16,04,34,12.20
2015,10,16,04,35,12.20
2015,10,16,04,36,12.10
2015,10,16,04,37,12.10
2015,10,16,04,38,12.00
2015,10,16,04,39,12.00
2015,10,16,04,40,11.90
2015,10,16,04,41,11.80
2015,10,16,04,42,11.80
2015,10,16,04,43,11.80
2015,10,16,04,44,11.70
2015,10,16,04,45,11.60
2015,10,16,04,46,11.60
2015,10,16,04,47,11.60
2015,10,16,04,48,11.60
2015,10,16,04,49,11.50
2015,10,16,04,50,11.40
2015,10,16,04,51,11.40
2015,10,16,04,52,11.30
2015,10,16,04,53,11.20
2015,10,16,04,54,11.20
2015,10,16,04,55,11.10
2015,10,16,04,56,11.10
2015,10,16,04,57,11.10
2015,10,16,04,58,11.00
2015,10,16,04,59,10.90
2015,10,16,05,00,10.90
2015,10,16,05,01,10.90
2015,10,16,05,02,10.90
2015,10,16,05,03,10.90
2015,10,16,05,04,10.90
2015,10,16,05,05,10.90
2015,10,16,05,06,10.90
2015,10,16,05,07,10.90
2015,10,16,05,08,10.90
2015,10,16,05,09,10.90
2015,10,16,05,10,10.90
2015,10,16,05,11,10.90
2015,10,16,05,12,10.90
2015,10,16,05,13,10.90
2015,10,16,05,14,10.90
2015,10,16,05,15,10.90
2015,10,16,05,16,10.90
2015,10,16,05,17,10.90
2015,10,16,05,18,10.90
2015,10,16,05,19,10.90
2015,10,16,05,20,11.00
2015,10,16,05,21,11.00
2015,10,16,05,22,10.90
2015,10,16,05,23,10.90
2015,10,16,05,24,10.90
2015,10,16,05,25,10.90
2015,10,16,05,26,10.90
2015,10,16,05,27,10.90
2015,10,16,05,28,10.90
2015,10,16,05,29,10.80
2015,10,16,05,30,10.80
2015,10,16,05,31,10.70
2015,10,16,05,32,10.70
2015,10,16,05,33,10.70
2015,10,16,05,34,10.60
2015,10,16,05,35,10.60
2015,10,16,05,36,10.60
2015,10,16,05,37,10.60
2015,10,16,05,38,10.60
2015,10,16,05,39,10.60
2015,10,16,05,40,10.60
2015,10,16,05,41,10.60
2015,10,16,05,42,10.60
2015,10,16,05,43,10.60
2015,10,16,05,44,10.60
2015,10,16,05,45,10.60
2015,10,16,05,46,10.60
2015,10,16,05,47,10.60
2015,10,16,05,48,10.50
2015,10,16,05,49,10.40
2015,10,16,05,50,10.40
2015,10,16,05,51,10.40
2015,10,16,05,52,10.40
2015,10,16,05,53,10.40
2015,10,16,05,54,10.40
2015,10,16,05,55,10.40
2015,10,16,05,56,10.40
2015,10,16,05,57,10.40
2015,10,16,05,58,10.40
2015,10,16,05,59,10.40
2015,10,16,06,00,10.40
2015,10,16,06,01,10.40
2015,10,16,06,02,10.40
2015,10,16,06,03,10.40
2015,10,16,06,04,10.40
2015,10,16,06,05,10.40
2015,10,16,06,06,10.40
2015,10,16,06,07,10.40
2015,10,16,06,08,10.40
2015,10,16,06,09,10.40
2015,10,16,06,10,10.40
2015,10,16,06,11,10.40
2015,10,16,06,12,10.30
2015,10,16,06,13,10.30
2015,10,16,06,14,10.30
2015,10,16,06,15,10.20
2015,10,16,06,16,10.20
2015,10,16,06,17,10.20
2015,10,16,06,18,10.10
2015,10,16,06,19,10.10
2015,10,16,06,20,10.10
2015,10,16,06,21,10.10
2015,10,16,06,22,10.10
2015,10,16,06,23,10.10
2015,10,16,06,24,10.00
2015,10,16,06,25,9.90
2015,10,16,06,26,9.90
2015,10,16,06,27,9.90
2015,10,16,06,28,9.90
2015,10,16,06,29,9.90
2015,10,16,06,30,9.90
2015,10,16,06,31,9.90
2015,10,16,06,32,9.90
2015,10,16,06,33,9.90
2015,10,16,06,34,9.90
2015,10,16,06,35,9.90
2015,10,16,06,36,9.90
2015,10,16,06,37,9.90
2015,10,16,06,38,9.90
2015,10,16,06,39,9.90
2015,10,16,06,40,10.10
2015,10,16,06,41,10.10
2015,10,16,06,42,10.00
2015,10,16,06,43,9.90
2015,10,16,06,44,9.90
2015,10,16,06,45,10.00
2015,10,16,06,46,10.10
2015,10,16,06,47,10.10
2015,10,16,06,48,10.00
2015,10,16,06,49,9.90
2015,10,16,06,50,9.90
2015,10,16,06,51,9.90
2015,10,16,06,52,9.90
2015,10,16,06,53,9.90
2015,10,16,06,54,9.90
2015,10,16,06,55,9.90
2015,10,16,06,56,9.90
2015,10,16,06,57,9.90
2015,10,16,06,58,9.90
2015,10,16,06,59,9.80
2015,10,16,07,00,9.80
2015,10,16,07,01,9.80
2015,10,16,07,02,9.70
2015,10,16,07,03,9.70
2015,10,16,07,04,9.70
2015,10,16,07,05,9.70
2015,10,16,07,06,9.70
2015,10,16,07,07,9.60
2015,10,16,07,08,9.60
2015,10,16,07,09,9.60
2015,10,16,07,10,9.60
2015,10,16,07,11,9.60
2015,10,16,07,12,9.60
2015,10,16,07,13,9.60
2015,10,16,07,14,9.60
2015,10,16,07,15,9.50
2015,10,16,07,16,9.50
2015,10,16,07,17,9.50
2015,10,16,07,18,9.50
2015,10,16,07,19,9.50
2015,10,16,07,20,9.50
2015,10,16,07,21,9.50
2015,10,16,07,22,9.50
2015,10,16,07,23,9.50
2015,10,16,07,24,9.50
2015,10,16,07,25,9.50
2015,10,16,07,26,9.50
2015,10,16,07,27,9.50
2015,10,16,07,28,9.50
2015,10,16,07,29,9.50
2015,10,16,07,30,9.50
2015,10,16,07,31,9.60
2015,10,16,07,32,9.60
2015,10,16,07,33,9.60
2015,10,16,07,34,9.70
2015,10,16,07,35,9.70
2015,10,16,07,36,9.70
2015,10,16,07,37,9.70
2015,10,16,07,38,9.70
2015,10,16,07,39,9.70
2015,10,16,07,40,9.70
2015,10,16,07,41,9.70
2015,10,16,07,42,9.80
2015,10,16,07,43,9.80
2015,10,16,07,44,9.80
2015,10,16,07,45,9.80
2015,10,16,07,46,9.90
2015,10,16,07,47,9.90
2015,10,16,07,48,9.90
2015,10,16,07,49,9.90
2015,10,16,07,50,9.90
2015,10,16,07,51,9.90
2015,10,16,07,52,10.00
2015,10,16,07,53,10.10
2015,10,16,07,54,10.10
2015,10,16,07,55,10.10
2015,10,16,07,56,10.10
2015,10,16,07,57,10.20
2015,10,16,07,58,10.20
2015,10,16,07,59,10.30
2015,10,16,08,00,10.30
2015,10,16,08,01,10.40
2015,10,16,08,02,10.40
2015,10,16,08,03,10.50
2015,10,16,08,04,10.60
2015,10,16,08,05,10.60
2015,10,16,08,06,10.60
2015,10,16,08,07,10.70
2015,10,16,08,08,10.80
2015,10,16,08,09,10.90
2015,10,16,08,10,11.10
2015,10,16,08,11,11.10
2015,10,16,08,12,11.20
2015,10,16,08,13,11.30
2015,10,16,08,14,11.30
2015,10,16,08,15,11.30
2015,10,16,08,16,11.40
2015,10,16,08,17,11.40
2015,10,16,08,18,11.40
2015,10,16,08,19,11.40
2015,10,16,08,20,11.40
2015,10,16,08,21,11.40
2015,10,16,08,22,11.40
2015,10,16,08,23,11.40
2015,10,16,08,24,11.50
2015,10,16,08,25,11.60
2015,10,16,08,26,11.60
2015,10,16,08,27,11.60
2015,10,16,08,28,11.60
2015,10,16,08,29,11.60
2015,10,16,08,30,11.60
2015,10,16,08,31,11.60
2015,10,16,08,32,11.70
2015,10,16,08,33,11.70
2015,10,16,08,34,11.70
2015,10,16,08,35,11.70
2015,10,16,08,36,11.80
2015,10,16,08,37,11.80
2015,10,16,08,38,11.80
2015,10,16,08,39,11.90
2015,10,16,08,40,12.00
2015,10,16,08,41,12.10
2015,10,16,08,42,12.20
2015,10,16,08,43,12.30
2015,10,16,08,44,12.40
2015,10,16,08,45,12.50
2015,10,16,08,46,12.60
2015,10,16,08,47,12.70
2015,10,16,08,48,12.80
2015,10,16,08,49,12.90
2015,10,16,08,50,13.00
2015,10,16,08,51,13.00
2015,10,16,08,52,13.10
2015,10,16,08,53,13.20
2015,10,16,08,54,13.30
2015,10,16,08,55,13.30
2015,10,16,08,56,13.40
2015,10,16,08,57,13.40
2015,10,16,08,58,13.40
2015,10,16,08,59,13.50
2015,10,16,09,00,13.50
2015,10,16,09,01,13.60
2015,10,16,09,02,13.60
2015,10,16,09,03,13.70
2015,10,16,09,04,13.70
2015,10,16,09,05,13.80
2015,10,16,09,06,13.90
2015,10,16,09,07,14.00
2015,10,16,09,08,14.10
2015,10,16,09,09,14.20
2015,10,16,09,10,14.30
2015,10,16,09,11,14.40
2015,10,16,09,12,14.50
2015,10,16,09,13,14.50
2015,10,16,09,14,14.60
2015,10,16,09,15,14.70
2015,10,16,09,16,14.80
2015,10,16,09,17,14.90
2015,10,16,09,18,14.90
2015,10,16,09,19,14.90
2015,10,16,09,20,14.90
2015,10,16,09,21,14.90
2015,10,16,09,22,14.90
2015,10,16,09,23,15.00
2015,10,16,09,24,15.00
2015,10,16,09,25,15.00
2015,10,16,09,26,15.10
2015,10,16,09,27,15.10
2015,10,16,09,28,15.10
2015,10,16,09,29,15.10
2015,10,16,09,30,15.10
2015,10,16,09,31,15.10
2015,10,16,09,32,15.10
2015,10,16,09,33,15.00
2015,10,16,09,34,15.00
2015,10,16,09,35,15.00
2015,10,16,09,36,15.00
2015,10,16,09,37,15.00
2015,10,16,09,38,15.10
2015,10,16,09,39,15.10
2015,10,16,09,40,15.20
2015,10,16,09,41,15.20
2015,10,16,09,42,15.20
2015,10,16,09,43,15.30
2015,10,16,09,44,15.30
2015,10,16,09,45,15.30
2015,10,16,09,46,15.40
2015,10,16,09,47,15.40
2015,10,16,09,48,15.50
2015,10,16,09,49,15.50
2015,10,16,09,50,15.50
2015,10,16,09,51,15.60
2015,10,16,09,52,15.60
2015,10,16,09,53,15.60
2015,10,16,09,54,15.60
2015,10,16,09,55,15.50
2015,10,16,09,56,15.50
2015,10,16,09,57,15.50
2015,10,16,09,58,15.40
2015,10,16,09,59,15.40
2015,10,16,10,00,15.50
2015,10,16,10,01,15.50
2015,10,16,10,02,15.50
2015,10,16,10,03,15.50
2015,10,16,10,04,15.40
2015,10,16,10,05,15.50
2015,10,16,10,06,15.50
2015,10,16,10,07,15.60
2015,10,16,10,08,15.60
2015,10,16,10,09,15.60
2015,10,16,10,10,15.50
2015,10,16,10,11,15.50
2015,10,16,10,12,15.50
2015,10,16,10,13,15.50
2015,10,16,10,14,15.40
2015,10,16,10,15,15.40
2015,10,16,10,16,15.40
2015,10,16,10,17,15.40
2015,10,16,10,18,15.40
2015,10,16,10,19,15.40
2015,10,16,10,20,15.40
2015,10,16,10,21,15.40
2015,10,16,10,22,15.40
2015,10,16,10,23,15.30
2015,10,16,10,24,15.30
2015,10,16,10,25,15.30
2015,10,16,10,26,15.20
2015,10,16,10,27,15.10
2015,10,16,10,28,15.00
2015,10,16,10,29,15.00
2015,10,16,10,30,14.90
2015,10,16,10,31,14.90
2015,10,16,10,32,14.80
2015,10,16,10,33,14.80
2015,10,16,10,34,14.70
2015,10,16,10,35,14.70
2015,10,16,10,36,14.70
2015,10,16,10,37,14.70
2015,10,16,10,38,14.70
2015,10,16,10,39,14.70
2015,10,16,10,40,14.80
2015,10,16,10,41,14.80
2015,10,16,10,42,14.90
2015,10,16,10,43,14.90
2015,10,16,10,44,14.90
2015,10,16,10,45,15.00
2015,10,16,10,46,15.00
2015,10,16,10,47,15.00
2015,10,16,10,48,14.90
2015,10,16,10,49,14.90
2015,10,16,10,50,14.90
2015,10,16,10,51,14.80
2015,10,16,10,52,14.80
2015,10,16,10,53,14.80
2015,10,16,10,54,14.80
2015,10,16,10,55,14.80
2015,10,16,10,56,14.80
2015,10,16,10,57,14.80
2015,10,16,10,58,14.70
2015,10,16,10,59,14.70
2015,10,16,11,00,14.70
2015,10,16,11,01,14.70
2015,10,16,11,02,14.70
2015,10,16,11,03,14.70
2015,10,16,11,04,14.80
2015,10,16,11,05,14.80
2015,10,16,11,06,14.80
2015,10,16,11,07,14.80
2015,10,16,11,08,14.80
2015,10,16,11,09,14.80
2015,10,16,11,10,14.70
2015,10,16,11,11,14.50
2015,10,16,11,12,14.40
2015,10,16,11,13,14.30
2015,10,16,11,14,14.20
2015,10,16,11,15,14.20
2015,10,16,11,16,14.10
2015,10,16,11,17,14.10
2015,10,16,11,18,14.10
2015,10,16,11,19,14.10
2015,10,16,11,20,14.10
2015,10,16,11,21,14.10
2015,10,16,11,22,14.10
2015,10,16,11,23,14.20
2015,10,16,11,24,14.20
2015,10,16,11,25,14.20
2015,10,16,11,26,14.30
2015,10,16,11,27,14.30
2015,10,16,11,28,14.30
2015,10,16,11,29,14.30
2015,10,16,11,30,14.30
2015,10,16,11,31,14.30
2015,10,16,11,32,14.30
2015,10,16,11,33,14.30
2015,10,16,11,34,14.30
2015,10,16,11,35,14.30
2015,10,16,11,36,14.40
2015,10,16,11,37,14.50
2015,10,16,11,38,14.50
2015,10,16,11,39,14.60
2015,10,16,11,40,14.60
2015,10,16,11,41,14.60
2015,10,16,11,42,14.50
2015,10,16,11,43,14.50
2015,10,16,11,44,14.50
2015,10,16,11,45,14.50
2015,10,16,11,46,14.40
2015,10,16,11,47,14.50
2015,10,16,11,48,14.50
2015,10,16,11,49,14.50
2015,10,16,11,50,14.50
2015,10,16,11,51,14.50
2015,10,16,11,52,14.50
2015,10,16,11,53,14.50
2015,10,16,11,54,14.60
2015,10,16,11,55,14.60
2015,10,16,11,56,14.60
2015,10,16,11,57,14.60
2015,10,16,11,58,14.60
2015,10,16,11,59,14.60
2015,10,16,12,00,14.70
2015,10,16,12,01,14.70
2015,10,16,12,02,14.80
2015,10,16,12,03,14.90
2015,10,16,12,04,15.00
2015,10,16,12,05,15.00
2015,10,16,12,06,15.00
2015,10,16,12,07,15.10
2015,10,16,12,08,15.10
2015,10,16,12,09,15.10
2015,10,16,12,10,15.20
2015,10,16,12,11,15.30
2015,10,16,12,12,15.30
2015,10,16,12,13,15.30
2015,10,16,12,14,15.30
2015,10,16,12,15,15.30
2015,10,16,12,16,15.30
2015,10,16,12,17,15.30
2015,10,16,12,18,15.30
2015,10,16,12,19,15.30
2015,10,16,12,20,15.30
2015,10,16,12,21,15.40
2015,10,16,12,22,15.40
2015,10,16,12,23,15.40
2015,10,16,12,24,15.40
2015,10,16,12,25,15.50
2015,10,16,12,26,15.50
2015,10,16,12,27,15.50
2015,10,16,12,28,15.50
2015,10,16,12,29,15.50
2015,10,16,12,30,15.50
2015,10,16,12,31,15.50
2015,10,16,12,32,15.40
2015,10,16,12,33,15.30
2015,10,16,12,34,15.30
2015,10,16,12,35,15.30
2015,10,16,12,36,15.30
2015,10,16,12,37,15.40
2015,10,16,12,38,15.40
2015,10,16,12,39,15.40
2015,10,16,12,40,15.40
2015,10,16,12,41,15.40
2015,10,16,12,42,15.40
2015,10,16,12,43,15.40
2015,10,16,12,44,15.40
2015,10,16,12,45,15.30
2015,10,16,12,46,15.40
2015,10,16,12,47,15.40
2015,10,16,12,48,15.40
2015,10,16,12,49,15.40
2015,10,16,12,50,15.30
2015,10,16,12,51,15.30
2015,10,16,12,52,15.30
2015,10,16,12,53,15.30
2015,10,16,12,54,15.30
2015,10,16,12,55,15.30
2015,10,16,12,56,15.30
2015,10,16,12,57,15.30
2015,10,16,12,58,15.30
2015,10,16,12,59,15.30
2015,10,16,13,00,15.30
2015,10,16,13,01,15.30
2015,10,16,13,02,15.30
2015,10,16,13,03,15.30
2015,10,16,13,04,15.30
2015,10,16,13,05,15.30
2015,10,16,13,06,15.30
2015,10,16,13,07,15.40
2015,10,16,13,08,15.40
2015,10,16,13,09,15.40
2015,10,16,13,10,15.40
2015,10,16,13,11,15.40
2015,10,16,13,12,15.50
2015,10,16,13,13,15.50
2015,10,16,13,14,15.50
2015,10,16,13,15,15.50
2015,10,16,13,16,15.50
2015,10,16,13,17,15.60
2015,10,16,13,18,15.60
2015,10,16,13,19,15.70
2015,10,16,13,20,15.70
2015,10,16,13,21,15.80
2015,10,16,13,22,15.80
2015,10,16,13,23,15.80
2015,10,16,13,24,15.90
2015,10,16,13,25,15.90
2015,10,16,13,26,16.00
2015,10,16,13,27,16.10
2015,10,16,13,28,16.10
2015,10,16,13,29,16.10
2015,10,16,13,30,16.10
2015,10,16,13,31,16.20
2015,10,16,13,32,16.10
2015,10,16,13,33,16.10
2015,10,16,13,34,16.20
2015,10,16,13,35,16.20
2015,10,16,13,36,16.30
2015,10,16,13,37,16.40
2015,10,16,13,38,16.40
2015,10,16,13,39,16.50
2015,10,16,13,40,16.60
2015,10,16,13,41,16.70
2015,10,16,13,42,16.70
2015,10,16,13,43,16.70
2015,10,16,13,44,16.70
2015,10,16,13,45,16.60
2015,10,16,13,46,16.60
2015,10,16,13,47,16.40
2015,10,16,13,48,16.50
2015,10,16,13,49,16.60
2015,10,16,13,50,16.60
2015,10,16,13,51,16.60
2015,10,16,13,52,16.70
2015,10,16,13,53,16.70
2015,10,16,13,54,16.70
2015,10,16,13,55,16.60
2015,10,16,13,56,16.60
2015,10,16,13,57,16.60
2015,10,16,13,58,16.70
2015,10,16,13,59,16.70
2015,10,16,14,00,16.70
2015,10,16,14,01,16.70
2015,10,16,14,02,16.70
2015,10,16,14,03,16.70
2015,10,16,14,04,16.70
2015,10,16,14,05,16.60
2015,10,16,14,06,16.60
2015,10,16,14,07,16.60
2015,10,16,14,08,16.60
2015,10,16,14,09,16.60
2015,10,16,14,10,16.70
2015,10,16,14,11,16.70
2015,10,16,14,12,16.70
2015,10,16,14,13,16.80
2015,10,16,14,14,16.80
2015,10,16,14,15,16.80
2015,10,16,14,16,16.80
2015,10,16,14,17,16.80
2015,10,16,14,18,16.80
2015,10,16,14,19,16.80
2015,10,16,14,20,16.80
2015,10,16,14,21,16.70
2015,10,16,14,22,16.70
2015,10,16,14,23,16.70
2015,10,16,14,24,16.70
2015,10,16,14,25,16.70
2015,10,16,14,26,16.80
2015,10,16,14,27,16.80
2015,10,16,14,28,16.90
2015,10,16,14,29,16.90
2015,10,16,14,30,17.00
2015,10,16,14,31,17.00
2015,10,16,14,32,17.00
2015,10,16,14,33,17.10
2015,10,16,14,34,17.10
2015,10,16,14,35,17.10
2015,10,16,14,36,17.10
2015,10,16,14,37,17.20
2015,10,16,14,38,17.30
2015,10,16,14,39,17.30
2015,10,16,14,40,17.40
2015,10,16,14,41,17.50
2015,10,16,14,42,17.50
2015,10,16,14,43,17.50
2015,10,16,14,44,17.40
2015,10,16,14,45,17.30
2015,10,16,14,46,17.30
2015,10,16,14,47,17.30
2015,10,16,14,48,17.30
2015,10,16,14,49,17.20
2015,10,16,14,50,17.20
2015,10,16,14,51,17.20
2015,10,16,14,52,17.20
2015,10,16,14,53,17.20
2015,10,16,14,54,17.10
2015,10,16,14,55,17.10
2015,10,16,14,56,17.10
2015,10,16,14,57,17.10
2015,10,16,14,58,17.10
2015,10,16,14,59,17.10
2015,10,16,15,00,17.10
2015,10,16,15,01,17.20
2015,10,16,15,02,17.20
2015,10,16,15,03,17.20
2015,10,16,15,04,17.20
2015,10,16,15,05,17.20
2015,10,16,15,06,17.20
2015,10,16,15,07,17.20
2015,10,16,15,08,17.30
2015,10,16,15,09,17.20
2015,10,16,15,10,17.20
2015,10,16,15,11,17.10
2015,10,16,15,12,17.10
2015,10,16,15,13,17.10
2015,10,16,15,14,17.10
2015,10,16,15,15,17.10
2015,10,16,15,16,17.10
2015,10,16,15,17,17.00
2015,10,16,15,18,17.10
2015,10,16,15,19,17.10
2015,10,16,15,20,17.10
2015,10,16,15,21,17.10
2015,10,16,15,22,17.10
2015,10,16,15,23,17.10
2015,10,16,15,24,17.20
2015,10,16,15,25,17.20
2015,10,16,15,26,17.20
2015,10,16,15,27,17.10
2015,10,16,15,28,17.10
2015,10,16,15,29,17.00
2015,10,16,15,30,17.00
2015,10,16,15,31,16.90
2015,10,16,15,32,16.90
2015,10,16,15,33,16.90
2015,10,16,15,34,16.90
2015,10,16,15,35,17.00
2015,10,16,15,36,17.00
2015,10,16,15,37,17.10
2015,10,16,15,38,17.10
2015,10,16,15,39,17.10
2015,10,16,15,40,17.20
2015,10,16,15,41,17.20
2015,10,16,15,42,17.20
2015,10,16,15,43,17.20
2015,10,16,15,44,17.20
2015,10,16,15,45,17.20
2015,10,16,15,46,17.20
2015,10,16,15,47,17.00
2015,10,16,15,48,17.00
2015,10,16,15,49,16.90
2015,10,16,15,50,16.90
2015,10,16,15,51,16.90
2015,10,16,15,52,17.00
2015,10,16,15,53,17.00
2015,10,16,15,54,17.10
2015,10,16,15,55,17.10
2015,10,16,15,56,17.10
2015,10,16,15,57,17.10
2015,10,16,15,58,17.10
2015,10,16,15,59,17.10
2015,10,16,16,00,17.00
2015,10,16,16,01,17.00
2015,10,16,16,02,16.90
2015,10,16,16,03,16.90
2015,10,16,16,04,16.90
2015,10,16,16,05,16.90
2015,10,16,16,06,16.90
2015,10,16,16,07,16.90
2015,10,16,16,08,16.90
2015,10,16,16,09,16.90
2015,10,16,16,10,16.90
2015,10,16,16,11,16.90
2015,10,16,16,12,16.90
2015,10,16,16,13,16.90
2015,10,16,16,14,16.90
2015,10,16,16,15,16.90
2015,10,16,16,16,16.90
2015,10,16,16,17,16.90
2015,10,16,16,18,16.90
2015,10,16,16,19,17.00
2015,10,16,16,20,17.00
2015,10,16,16,21,17.00
2015,10,16,16,22,17.00
2015,10,16,16,23,16.90
2015,10,16,16,24,16.90
2015,10,16,16,25,16.80
2015,10,16,16,26,16.70
2015,10,16,16,27,16.70
2015,10,16,16,28,16.70
2015,10,16,16,29,16.60
2015,10,16,16,30,16.60
2015,10,16,16,31,16.60
2015,10,16,16,32,16.50
2015,10,16,16,33,16.40
2015,10,16,16,34,16.60
2015,10,16,16,35,16.60
2015,10,16,16,36,16.60
2015,10,16,16,37,16.60
2015,10,16,16,38,16.60
2015,10,16,16,39,16.60
2015,10,16,16,40,16.60
2015,10,16,16,41,16.50
2015,10,16,16,42,16.40
2015,10,16,16,43,16.40
2015,10,16,16,44,16.40
2015,10,16,16,45,16.40
2015,10,16,16,46,16.40
2015,10,16,16,47,16.40
2015,10,16,16,48,16.40
2015,10,16,16,49,16.40
2015,10,16,16,50,16.40
2015,10,16,16,51,16.40
2015,10,16,16,52,16.40
2015,10,16,16,53,16.40
2015,10,16,16,54,16.40
2015,10,16,16,55,16.40
2015,10,16,16,56,16.30
2015,10,16,16,57,16.30
2015,10,16,16,58,16.20
2015,10,16,16,59,16.20
2015,10,16,17,00,16.20
2015,10,16,17,01,16.10
2015,10,16,17,02,16.10
2015,10,16,17,03,16.10
2015,10,16,17,04,16.00
2015,10,16,17,05,15.90
2015,10,16,17,06,15.90
2015,10,16,17,07,15.90
2015,10,16,17,08,15.80
2015,10,16,17,09,15.80
2015,10,16,17,10,15.70
2015,10,16,17,11,15.60
2015,10,16,17,12,15.60
2015,10,16,17,13,15.50
2015,10,16,17,14,15.40
2015,10,16,17,15,15.30
2015,10,16,17,16,15.30
2015,10,16,17,17,15.20
2015,10,16,17,18,15.20
2015,10,16,17,19,15.10
2015,10,16,17,20,15.10
2015,10,16,17,21,15.00
2015,10,16,17,22,15.00